Tracking 21470 objects as of 23-Sep-2020
HD Live streaming from Space Station
objects crossing your sky now

DELTA 1 DEB

Track DELTA 1 DEB now!
10-day predictions


NORAD ID: 37671
Int'l Code: 1978-026KJ
Perigee: 796.3 km
Apogee: 840.4 km
Inclination: 98.8 °
Period: 101.1 minutes
Semi major axis: 7189 km
RCS: 0.0135 m2 (small)
Launch date: March 5, 1978
Source: United States (US)
Launch site: AIR FORCE WESTERN TEST RANGE (AFWTR)

Note: This is SATELLITE DEBRIS
aabbcc
Your satellite tracking list
Your tracking list is empty




NASA's NSSDC Master Catalog

Two Line Element Set (TLE):
1 37671U 78026KJ  20266.18292621  .00000140  00000-0  79793-4 0  9998
2 37671  98.8185 250.0789 0030637 102.1729 258.2884 14.24199212926343
Source of the keplerian elements: AFSPC